[[{"header":{"parameterUnit":"m.s-1","parameterCategory":1,"la1":30.2991,"la2":30.254,"lo1":-89.0895,"lo2":-89.0444,"dy":0.0017,"dx":0.0017,"nx":28,"ny":28,"refTime":"2025-03-19T09:00:00:Z","depth":0,"parameterNumber":2,"parameterNumberName":"U-component_of_WINDS"},"data":[0,0,0,0,0,0,0,0,0,0,0,0,0,0,0,0,0,0,0,0,0,0,0,0,0,0,0,0,0,0,0,0,0,0,0,0,0,0,0,0,0,0,0,0,0,0,0,0,0,0,0,0,0,0,0,0,0,0,1.2954,1.2953,0,1.2892,1.2891,1.289,1.2802,1.28,1.2799,1.2797,1.2736,1.2736,1.2736,0,0,0,0,0,0,0,0,0,0,0,0,0,1.3,1.2999,1.2954,1.2953,1.2953,1.2892,1.2891,1.289,1.2802,1.28,1.2798,1.2796,1.2736,1.2736,1.2736,0,0,0,0,0,0,0,0,0,0,0,0,0,1.2963,1.2999,1.2954,1.2901,1.2896,1.2892,1.2891,1.289,1.2802,1.28,1.2798,1.2796,1.2736,1.2736,1.2736,1.278,0,0,1.2735,1.2735,0,0,0,0,0,0,0,0,1.2965,1.2961,1.291,1.2905,1.2899,1.2852,1.2884,1.2853,1.2803,1.2838,1.2797,1.2794,1.2777,1.2773,1.2766,1.2777,1.2774,1.2735,1.2735,1.2734,1.2734,0,0,0,0,0,0,0,1.2968,1.2964,1.2929,1.2909,1.2902,1.2881,1.2874,1.2878,1.2821,1.2835,1.2828,1.2822,1.2773,1.2767,1.2764,1.2773,1.2735,1.2735,1.2734,1.2734,1.2816,1.2818,0,0,0,0,0,0,1.2978,1.2966,1.2931,1.2928,1.2927,1.2882,1.2874,1.2869,1.2821,1.2811,1.2824,1.2818,1.2769,1.2765,1.2762,1.2809,1.2734,1.2734,1.2734,1.2814,1.2817,1.2819,0,0,0,0,0,0,1.2979,1.2976,1.2934,1.2945,1.2938,1.2884,1.288,1.2869,1.2863,1.2812,1.2802,1.2827,1.2767,1.2762,1.2775,1.2806,1.2734,1.2734,1.2811,1.2815,1.2818,1.2906,0,0,0,0,0,0,1.2981,1.2977,1.2992,1.2946,1.2938,1.2948,1.2882,1.287,1.2862,1.2854,1.2813,1.2804,1.2764,1.2776,1.2775,1.2804,1.2734,1.2808,1.2813,1.2817,1.29,1.2912,1.2922,0,0,0,0,0,1.2983,1.302,1.2993,1.299,1.2956,1.295,1.2946,1.2898,1.2865,1.288,1.2848,1.2806,1.2803,1.2779,1.2776,1.2806,1.2806,1.2811,1.2816,1.2895,1.2909,1.2922,0,0,0,0,0,0,1.3072,1.3013,1.2983,1.3006,1.2984,1.2935,1.2953,1.2915,1.2902,1.2895,1.2838,1.283,1.285,1.2829,1.2803,1.2846,1.2798,1.2803,1.2858,1.2872,1.2883,1.2887,1.2733,0,0,0,0,0,1.3095,1.3094,1.3043,1.3068,1.3058,1.3008,1.3004,1.2969,1.2944,1.2934,1.2903,1.2881,1.2875,1.2872,1.2864,1.2896,1.2886,1.2916,1.2927,1.2936,1.2941,1.2956,1.2969,1.2836,1.2836,1.2836,0,0,1.3141,1.3109,1.3112,1.3085,1.3064,1.3065,1.3001,1.3005,1.3005,1.2935,1.2945,1.2922,1.2893,1.2916,1.2925,1.2899,1.2975,1.2943,1.2951,1.2951,1.2963,1.2976,1.2987,1.284,1.2839,1.2839,0,0,1.3226,1.3202,1.322,1.3199,1.3167,1.3133,1.3138,1.3095,1.3076,1.3085,1.3032,1.3033,1.3024,1.3005,1.2995,1.3073,1.3033,1.3072,1.313,1.3145,1.3156,1.3165,1.3192,1.3203,1.3077,1.3078,1.3078,0,1.3288,1.3287,1.3234,1.3241,1.3231,1.3167,1.3185,1.3168,1.3136,1.3131,1.3103,1.309,1.3066,1.3084,1.3103,1.3096,1.31,1.3076,1.3158,1.3167,1.3174,1.32,1.321,1.3082,1.3082,1.3081,1.3081,0,1.3364,1.3364,1.3383,1.3352,1.3344,1.3357,1.3307,1.3306,1.3272,1.3241,1.3252,1.3221,1.3205,1.3207,1.3174,1.322,1.3205,1.3169,1.312,1.3193,1.3216,1.3225,1.3089,1.3088,1.3086,1.3085,0,0,1.3504,1.3443,1.3451,1.3436,1.3396,1.3395,1.3405,1.3389,1.3388,1.3368,1.3375,1.3369,1.3335,1.3323,1.3288,1.3302,1.3365,1.3263,1.3262,1.3283,1.3413,1.344,1.3452,1.3338,1.334,1.3341,1.3415,0,1.3581,1.3593,1.3546,1.3572,1.3571,1.351,1.3519,1.3495,1.3467,1.3463,1.3432,1.3428,1.3384,1.3376,1.3387,1.3355,1.339,1.3349,1.3345,1.3345,1.3353,1.3464,1.3493,1.3564,1.3424,1.3425,1.3426,0,1.3672,1.3655,1.368,1.3638,1.3636,1.3645,1.3625,1.3622,1.3595,1.3573,1.356,1.3519,1.3526,1.348,1.3489,1.3462,1.3458,1.3442,1.3444,1.3441,1.339,1.3464,1.3585,1.3596,1.344,1.3439,1.3438,0,1.377,1.3754,1.3767,1.3756,1.3707,1.3715,1.3695,1.3665,1.3658,1.3642,1.3637,1.3622,1.3614,1.3604,1.356,1.353,1.3575,1.3525,1.3558,1.3559,1.357,1.357,1.3691,1.3568,1.3568,1.3568,1.3567,0,1.386,1.3878,1.381,1.3818,1.3836,1.3783,1.3802,1.3776,1.375,1.3753,1.3699,1.3703,1.3645,1.3642,1.3608,1.3621,1.3618,1.3601,1.3591,1.3605,1.3607,1.3601,1.3595,1.357,1.357,1.3569,1.3569,0,1.3973,1.3929,1.3938,1.3891,1.388,1.3895,1.3855,1.3861,1.3829,1.3833,1.383,1.3781,1.3775,1.373,1.3714,1.3691,1.3717,1.3698,1.3726,1.372,1.3755,1.3752,1.3877,1.389,1.3759,1.376,1.3761,0,1.4034,1.4045,1.4,1.3997,1.3979,1.3976,1.3968,1.3916,1.391,1.3879,1.3889,1.3878,1.3867,1.386,1.3823,1.381,1.3791,1.3835,1.3788,1.3802,1.3791,1.379,1.3791,1.3845,1.3847,1.3848,1.3849,0,1.4145,1.4122,1.4113,1.4096,1.4088,1.4072,1.4053,1.4054,1.3997,1.3993,1.3986,1.3977,1.396,1.395,1.3931,1.3911,1.3871,1.3864,1.3871,1.3885,1.3901,1.3892,1.3753,1.3862,1.386,1.3859,1.3859,1.3858,1.4233,1.4241,1.4209,1.42,1.4181,1.4164,1.4167,1.4135,1.4128,1.4109,1.4079,1.4076,1.4048,1.4018,1.4002,1.3999,1.3975,1.3986,1.3988,1.3991,1.3998,1.3901,1.3995,1.3995,1.3994,1.3994,1.3994,0,1.4341,1.4318,1.431,1.4285,1.4278,1.424,1.4217,1.4215,1.4212,1.4189,1.4179,1.417,1.416,1.4122,1.4108,1.4113,1.4095,1.4111,1.411,1.4106,1.402,1.4015,1.4127,1.4127,1.4127,1.4127,1.4127,1.4127,1.4397,1.4407,1.4381,1.4381,1.4358,1.4354,1.4344,1.4329,1.431,1.4302,1.4293,1.4269,1.424,1.4223,1.4213,1.4202,1.4199,1.4222,1.4205,1.4125,1.4113,1.41,1.4096,1.4222,1.4222,1.4291,1.4292,1.4293]},{"header":{"parameterUnit":"m.s-1","parameterCategory":1,"la1":30.2991,"la2":30.254,"lo1":-89.0895,"lo2":-89.0444,"dy":0.0017,"dx":0.0017,"nx":28,"ny":28,"refTime":"2025-03-19T09:00:00:Z","depth":0,"parameterNumber":3,"parameterNumberName":"V-component_of_WINDS"},"data":[0,0,0,0,0,0,0,0,0,0,0,0,0,0,0,0,0,0,0,0,0,0,0,0,0,0,0,0,0,0,0,0,0,0,0,0,0,0,0,0,0,0,0,0,0,0,0,0,0,0,0,0,0,0,0,0,0,0,5.9956,5.9958,0,6.0076,6.0077,6.0078,6.0062,6.006,6.0058,6.0057,6.0175,6.018,6.0185,0,0,0,0,0,0,0,0,0,0,0,0,0,5.9711,5.9715,5.9956,5.9958,5.9959,6.0075,6.0077,6.0079,6.0063,6.006,6.0058,6.0056,6.0173,6.0179,6.0185,0,0,0,0,0,0,0,0,0,0,0,0,0,5.9822,5.9717,5.9956,5.9965,5.9967,6.0075,6.0077,6.0079,6.0063,6.006,6.0057,6.0055,6.0171,6.0179,6.0186,6.0291,0,0,6.0209,6.0212,0,0,0,0,0,0,0,0,5.9816,5.9831,5.9963,5.9965,5.9967,6.0051,6.0034,6.015,6.0064,6.0027,6.0056,6.0053,6.0136,6.0146,6.0175,6.0297,6.0302,6.021,6.0214,6.0217,6.0219,0,0,0,0,0,0,0,5.9808,5.9826,6.0003,5.9964,5.9967,5.9962,5.9975,6.0056,6.0096,6.003,6.0029,6.0043,6.0137,6.0168,6.0178,6.0303,6.0209,6.0216,6.0221,6.0224,6.0517,6.052,0,0,0,0,0,0,5.9799,5.982,6.0,6.0007,5.9883,5.9969,5.9983,6.0027,6.0095,6.0103,6.0046,6.0042,6.0156,6.0169,6.0182,6.0309,6.0217,6.0224,6.0229,6.0514,6.0518,6.0521,0,0,0,0,0,0,5.9794,5.9815,5.9995,5.9913,5.9936,5.9977,6.0026,6.0031,6.0062,6.0108,6.0114,6.007,6.0155,6.0171,6.0264,6.0313,6.0228,6.0234,6.051,6.0515,6.052,6.0566,0,0,0,0,0,0,5.9787,5.9813,5.9854,5.9914,5.994,6.0077,6.0029,6.0036,6.0076,6.0072,6.0132,6.014,6.0154,6.0253,6.0272,6.0322,6.024,6.0506,6.0512,6.0518,6.056,6.0571,6.0581,0,0,0,0,0,5.9778,5.9862,5.9857,5.9878,5.9993,6.008,6.0094,6.011,6.008,6.0121,6.015,6.0138,6.0305,6.0263,6.0284,6.0337,6.0503,6.051,6.0518,6.0555,6.0569,6.0581,0,0,0,0,0,0,5.9805,5.987,5.9865,5.9971,6.002,6.0077,6.0129,6.0124,6.0182,6.0176,6.0192,6.0205,6.03,6.0327,6.028,6.0442,6.0399,6.0411,6.0421,6.0435,6.0445,6.0437,6.0246,0,0,0,0,0,5.9824,5.989,5.9942,6.0031,6.0056,6.0088,6.0127,6.0135,6.0186,6.0206,6.0242,6.0291,6.0354,6.0396,6.0457,6.0563,6.0576,6.061,6.0621,6.063,6.064,6.0698,6.0714,6.0546,6.0546,6.0546,0,0,5.9862,5.9906,5.9946,6.0037,6.0076,6.0144,6.0106,6.0179,6.0228,6.0216,6.0307,6.0335,6.0391,6.0491,6.0537,6.0517,6.0689,6.0639,6.0646,6.0651,6.0708,6.0724,6.0738,6.0551,6.055,6.0549,0,0,5.9967,6.0007,6.0085,6.0126,6.0186,6.0207,6.0225,6.0283,6.0302,6.0393,6.0386,6.0444,6.0553,6.0594,6.0628,6.0748,6.0739,6.0768,6.0824,6.0881,6.0894,6.0906,6.0949,6.0965,6.0777,6.0778,6.0778,0,6.0008,6.011,6.0126,6.02,6.024,6.0233,6.0312,6.035,6.0426,6.0453,6.043,6.0567,6.0604,6.0714,6.0743,6.0771,6.0793,6.0761,6.0891,6.0903,6.0915,6.0956,6.0972,6.0781,6.078,6.078,6.078,0,6.0157,6.0228,6.0283,6.0359,6.0405,6.0481,6.0507,6.0552,6.0555,6.0578,6.0671,6.0715,6.0785,6.0812,6.0815,6.0922,6.0908,6.0888,6.0846,6.0934,6.0973,6.0989,6.0785,6.0784,6.0783,6.0782,0,0,6.0283,6.0366,6.0387,6.0421,6.0487,6.0541,6.0616,6.0686,6.0724,6.0776,6.084,6.0932,6.0914,6.0953,6.0961,6.1011,6.1104,6.0985,6.0986,6.1006,6.1224,6.124,6.1258,6.1098,6.1101,6.1103,6.122,0,6.0395,6.053,6.0546,6.0665,6.0731,6.0725,6.0791,6.0837,6.0861,6.0919,6.0944,6.101,6.0981,6.1005,6.1054,6.1082,6.1148,6.1074,6.1156,6.1159,6.1143,6.1278,6.1295,6.1403,6.1235,6.1238,6.124,0,6.0543,6.0602,6.0728,6.0785,6.0813,6.0872,6.0937,6.0993,6.1045,6.1059,6.1103,6.1105,6.1181,6.1135,6.1241,6.119,6.1225,6.1244,6.1248,6.1257,6.1205,6.1291,6.1438,6.1454,6.1264,6.1262,6.126,0,6.0623,6.0733,6.0823,6.0853,6.0921,6.0963,6.0993,6.1042,6.1083,6.114,6.1166,6.123,6.1265,6.1314,6.1333,6.1297,6.1437,6.1393,6.145,6.145,6.148,6.1478,6.1635,6.1502,6.1501,6.1501,6.1501,0,6.0747,6.0825,6.086,6.0916,6.1002,6.1019,6.1104,6.1132,6.1177,6.1237,6.1235,6.1291,6.1311,6.137,6.1385,6.147,6.1486,6.1498,6.1501,6.1499,6.1498,6.1522,6.1515,6.1505,6.1504,6.1504,6.1503,0,6.0851,6.0878,6.0976,6.1033,6.1049,6.1111,6.1159,6.1212,6.1234,6.131,6.1329,6.1364,6.1434,6.1457,6.1541,6.155,6.165,6.1646,6.1633,6.1633,6.169,6.1684,6.1868,6.1893,6.1743,6.1744,6.1745,0,6.0929,6.0989,6.1053,6.1093,6.1126,6.1191,6.1233,6.1252,6.1295,6.136,6.1405,6.1474,6.1531,6.1641,6.1674,6.1738,6.1736,6.1796,6.1745,6.1741,6.1737,6.1734,6.174,6.1805,6.1807,6.1808,6.1809,0,6.1064,6.1074,6.1136,6.1202,6.1253,6.1305,6.1356,6.1389,6.1415,6.1464,6.1536,6.158,6.1666,6.1735,6.18,6.1829,6.1824,6.1825,6.1842,6.184,6.183,6.1837,6.1659,6.1821,6.1819,6.1819,6.1818,6.1818,6.1158,6.1211,6.1264,6.1333,6.1373,6.1421,6.1474,6.1503,6.1564,6.1636,6.1643,6.1721,6.1771,6.1858,6.1891,6.1951,6.1934,6.1958,6.1964,6.197,6.1975,6.182,6.1963,6.1962,6.1962,6.1962,6.1962,0,6.1293,6.1327,6.139,6.1462,6.1516,6.1506,6.1562,6.1607,6.1676,6.1724,6.178,6.1862,6.1929,6.1967,6.2033,6.2074,6.2073,6.209,6.2088,6.2095,6.1986,6.1965,6.209,6.209,6.209,6.209,6.209,6.209,6.137,6.1459,6.1476,6.1585,6.1618,6.1695,6.1728,6.1772,6.181,6.1903,6.1959,6.1983,6.2027,6.2096,6.2157,6.2166,6.2191,6.221,6.2218,6.2116,6.2102,6.209,6.2071,6.2215,6.2215,6.2322,6.2323,6.2323]}]]